Time,TemperatureF,DewpointF,PressureIn,WindDirection,WindDirectionDegrees,WindSpeedMPH,WindSpeedGustMPH,Humidity,HourlyPrecipIn,Conditions,Clouds,dailyrainin,SolarRadiationWatts/m^2,SoftwareType,DateUTC
2013-03-10 00:02:00,41.0,17.0,-100.00,SSE,161,8.0,11.0,37,0.00,,,0.00,0.000000,,2013-03-10 05:02:00,
2013-03-10 00:32:00,39.0,16.0,-100.00,SSE,161,9.0,12.0,39,0.00,,,0.00,0.000000,,2013-03-10 05:32:00,
2013-03-10 00:42:00,39.0,16.0,-100.00,SSE,161,9.0,12.0,39,0.00,,,0.00,0.000000,,2013-03-10 05:42:00,
2013-03-10 00:52:00,39.0,16.0,-100.00,SSE,161,9.0,12.0,39,0.00,,,0.00,0.000000,,2013-03-10 05:52:00,
2013-03-10 01:02:00,39.0,16.0,-100.00,SSE,161,9.0,12.0,39,0.00,,,0.00,0.000000,,2013-03-10 06:02:00,
2013-03-10 01:32:00,38.0,16.0,-100.00,SSE,147,8.0,11.0,40,0.00,,,0.00,0.000000,,2013-03-10 06:32:00,
2013-03-10 01:42:00,38.0,16.0,-100.00,SSE,147,8.0,11.0,40,0.00,,,0.00,0.000000,,2013-03-10 06:42:00,
2013-03-10 01:52:00,38.0,16.0,-100.00,SSE,147,8.0,11.0,40,0.00,,,0.00,0.000000,,2013-03-10 06:52:00,
2013-03-10 03:02:00,38.0,16.0,-100.00,SSE,147,8.0,11.0,40,0.00,,,0.00,0.000000,,2013-03-10 07:02:00,
2013-03-10 03:32:00,36.0,15.0,-100.00,SSE,158,6.0,10.0,41,0.00,,,0.00,0.000000,,2013-03-10 07:32:00,
2013-03-10 03:42:00,36.0,15.0,-100.00,SSE,158,6.0,10.0,41,0.00,,,0.00,0.000000,,2013-03-10 07:42:00,
2013-03-10 03:52:00,36.0,15.0,-100.00,SSE,158,6.0,10.0,41,0.00,,,0.00,0.000000,,2013-03-10 07:52:00,
2013-03-10 04:01:00,36.0,15.0,-100.00,SSE,158,6.0,10.0,41,0.00,,,0.00,0.000000,,2013-03-10 08:01:00,
2013-03-10 04:32:00,38.0,16.0,-100.00,SSE,164,6.0,11.0,41,0.00,,,0.00,0.000000,,2013-03-10 08:32:00,
2013-03-10 04:42:00,38.0,16.0,-100.00,SSE,164,6.0,11.0,41,0.00,,,0.00,0.000000,,2013-03-10 08:42:00,
2013-03-10 04:52:00,38.0,16.0,-100.00,SSE,164,6.0,11.0,41,0.00,,,0.00,0.000000,,2013-03-10 08:52:00,
2013-03-10 05:02:00,38.0,16.0,-100.00,SSE,164,6.0,11.0,41,0.00,,,0.00,0.000000,,2013-03-10 09:02:00,
2013-03-10 05:32:00,39.0,17.0,-100.00,SSE,165,5.0,10.0,40,0.00,,,0.00,0.000000,,2013-03-10 09:32:00,
2013-03-10 05:42:00,39.0,17.0,-100.00,SSE,165,5.0,10.0,40,0.00,,,0.00,0.000000,,2013-03-10 09:42:00,
2013-03-10 05:52:00,39.0,17.0,-100.00,SSE,165,5.0,10.0,40,0.00,,,0.00,0.000000,,2013-03-10 09:52:00,
2013-03-10 06:02:00,39.0,17.0,-100.00,SSE,165,5.0,10.0,40,0.00,,,0.00,0.000000,,2013-03-10 10:02:00,
2013-03-10 06:32:00,39.0,15.0,-100.00,South,169,6.0,14.0,37,0.00,,,0.00,0.000000,,2013-03-10 10:32:00,
2013-03-10 06:42:00,39.0,15.0,-100.00,South,169,6.0,14.0,37,0.00,,,0.00,0.000000,,2013-03-10 10:42:00,
2013-03-10 06:52:00,39.0,15.0,-100.00,South,169,6.0,14.0,37,0.00,,,0.00,0.000000,,2013-03-10 10:52:00,
2013-03-10 07:01:00,39.0,15.0,-100.00,South,169,6.0,14.0,37,0.00,,,0.00,0.000000,,2013-03-10 11:01:00,
2013-03-10 10:32:00,46.0,17.0,-100.00,South,182,10.0,18.0,31,-99.99,,,0.00,284.000000,,2013-03-10 14:32:00,
2013-03-10 10:42:00,46.0,17.0,-100.00,South,182,10.0,18.0,31,-99.99,,,0.00,284.000000,,2013-03-10 14:42:00,
2013-03-10 10:52:00,46.0,17.0,-100.00,South,182,10.0,18.0,31,-99.99,,,0.00,284.000000,,2013-03-10 14:52:00,
2013-03-10 11:01:00,46.0,17.0,-100.00,South,182,10.0,18.0,31,-99.99,,,0.00,284.000000,,2013-03-10 15:01:00,
2013-03-10 11:32:00,47.0,18.0,-100.00,South,183,10.0,17.0,31,0.00,,,0.00,262.000000,,2013-03-10 15:32:00,
2013-03-10 11:42:00,47.0,18.0,-100.00,South,183,10.0,17.0,31,0.00,,,0.00,262.000000,,2013-03-10 15:42:00,
2013-03-10 11:52:00,47.0,18.0,-100.00,South,183,10.0,17.0,31,0.00,,,0.00,262.000000,,2013-03-10 15:52:00,
2013-03-10 12:02:00,47.0,18.0,-100.00,South,183,10.0,17.0,31,0.00,,,0.00,262.000000,,2013-03-10 16:02:00,
2013-03-10 12:32:00,52.0,19.0,-100.00,South,177,10.0,18.0,27,0.00,,,0.00,533.000000,,2013-03-10 16:32:00,
2013-03-10 12:42:00,52.0,19.0,-100.00,South,177,10.0,18.0,27,0.00,,,0.00,533.000000,,2013-03-10 16:42:00,
2013-03-10 12:52:00,52.0,19.0,-100.00,South,177,10.0,18.0,27,0.00,,,0.00,533.000000,,2013-03-10 16:52:00,
2013-03-10 13:01:00,52.0,19.0,-100.00,South,177,10.0,18.0,27,0.00,,,0.00,533.000000,,2013-03-10 17:01:00,
2013-03-10 15:32:00,58.0,21.0,-100.00,South,178,11.0,16.0,24,-99.99,,,0.00,649.000000,,2013-03-10 19:32:00,
2013-03-10 15:42:00,58.0,21.0,-100.00,South,178,11.0,16.0,24,-99.99,,,0.00,649.000000,,2013-03-10 19:42:00,
2013-03-10 15:53:00,58.0,21.0,-100.00,South,178,11.0,16.0,24,-99.99,,,0.00,649.000000,,2013-03-10 19:53:00,
2013-03-10 16:02:00,58.0,21.0,-100.00,South,178,11.0,16.0,24,-99.99,,,0.00,649.000000,,2013-03-10 20:02:00,
2013-03-10 16:33:00,59.0,22.0,-100.00,South,171,10.0,18.0,24,0.00,,,0.00,534.000000,,2013-03-10 20:33:00,
2013-03-10 16:43:00,59.0,22.0,-100.00,South,171,10.0,18.0,24,0.00,,,0.00,534.000000,,2013-03-10 20:43:00,
2013-03-10 16:53:00,59.0,22.0,-100.00,South,171,10.0,18.0,24,0.00,,,0.00,534.000000,,2013-03-10 20:53:00,
2013-03-10 17:02:00,59.0,22.0,-100.00,South,171,10.0,18.0,24,0.00,,,0.00,534.000000,,2013-03-10 21:02:00,
2013-03-10 17:33:00,56.0,21.0,-100.00,South,174,10.0,18.0,25,0.00,,,0.00,342.000000,,2013-03-10 21:33:00,
2013-03-10 17:43:00,56.0,21.0,-100.00,South,174,10.0,18.0,25,0.00,,,0.00,342.000000,,2013-03-10 21:43:00,
2013-03-10 17:53:00,56.0,21.0,-100.00,South,174,10.0,18.0,25,0.00,,,0.00,342.000000,,2013-03-10 21:53:00,
2013-03-10 18:03:00,56.0,21.0,-100.00,South,174,10.0,18.0,25,0.00,,,0.00,342.000000,,2013-03-10 22:03:00,
2013-03-10 18:33:00,53.0,22.0,-100.00,South,178,10.0,17.0,29,0.00,,,0.00,132.000000,,2013-03-10 22:33:00,
2013-03-10 18:43:00,53.0,22.0,-100.00,South,178,10.0,17.0,29,0.00,,,0.00,132.000000,,2013-03-10 22:43:00,
2013-03-10 18:53:00,53.0,22.0,-100.00,South,178,10.0,17.0,29,0.00,,,0.00,132.000000,,2013-03-10 22:53:00,
2013-03-10 19:03:00,53.0,22.0,-100.00,South,178,10.0,17.0,29,0.00,,,0.00,132.000000,,2013-03-10 23:03:00,
2013-03-10 19:33:00,51.0,24.0,-100.00,SSE,166,12.0,19.0,34,0.00,,,0.00,25.000000,,2013-03-10 23:33:00,
2013-03-10 19:43:00,51.0,24.0,-100.00,SSE,166,12.0,19.0,34,0.00,,,0.00,25.000000,,2013-03-10 23:43:00,
2013-03-10 19:53:00,51.0,24.0,-100.00,SSE,166,12.0,19.0,34,0.00,,,0.00,25.000000,,2013-03-10 23:53:00,
2013-03-10 20:03:00,51.0,24.0,-100.00,SSE,166,12.0,19.0,34,0.00,,,0.00,25.000000,,2013-03-11 00:03:00,
2013-03-10 20:33:00,49.0,23.0,-100.00,SSE,168,11.0,20.0,36,0.00,,,0.00,1.000000,,2013-03-11 00:33:00,
2013-03-10 20:43:00,49.0,23.0,-100.00,SSE,168,11.0,20.0,36,0.00,,,0.00,1.000000,,2013-03-11 00:43:00,
2013-03-10 20:53:00,49.0,23.0,-100.00,SSE,168,11.0,20.0,36,0.00,,,0.00,1.000000,,2013-03-11 00:53:00,
2013-03-10 21:03:00,49.0,23.0,-100.00,SSE,168,11.0,20.0,36,0.00,,,0.00,1.000000,,2013-03-11 01:03:00,
2013-03-10 21:33:00,48.0,24.0,-100.00,South,171,10.0,16.0,38,0.00,,,0.00,0.000000,,2013-03-11 01:33:00,
2013-03-10 21:43:00,48.0,24.0,-100.00,South,171,10.0,16.0,38,0.00,,,0.00,0.000000,,2013-03-11 01:43:00,
2013-03-10 21:53:00,48.0,24.0,-100.00,South,171,10.0,16.0,38,0.00,,,0.00,0.000000,,2013-03-11 01:53:00,
2013-03-10 22:03:00,48.0,24.0,-100.00,South,171,10.0,16.0,38,0.00,,,0.00,0.000000,,2013-03-11 02:03:00,
2013-03-10 22:32:00,47.0,23.0,-100.00,South,181,10.0,16.0,38,0.00,,,0.00,0.000000,,2013-03-11 02:32:00,
2013-03-10 22:42:00,47.0,23.0,-100.00,South,181,10.0,16.0,38,0.00,,,0.00,0.000000,,2013-03-11 02:42:00,
2013-03-10 22:53:00,47.0,23.0,-100.00,South,181,10.0,16.0,38,0.00,,,0.00,0.000000,,2013-03-11 02:53:00,
2013-03-10 23:02:00,47.0,23.0,-100.00,South,181,10.0,16.0,38,0.00,,,0.00,0.000000,,2013-03-11 03:02:00,
2013-03-10 23:32:00,47.0,23.0,-100.00,SSE,168,11.0,18.0,38,0.00,,,0.00,0.000000,,2013-03-11 03:32:00,
2013-03-10 23:43:00,47.0,23.0,-100.00,SSE,168,11.0,18.0,38,0.00,,,0.00,0.000000,,2013-03-11 03:43:00,
2013-03-10 23:53:00,47.0,23.0,-100.00,SSE,168,11.0,18.0,38,0.00,,,0.00,0.000000,,2013-03-11 03:53:00,